Wind_Speed
15 14 12 11 11 11 11 11 12 10 8 9 10 9 9 9 11 12 16 8 14 21 21 19 14 16 14 8 4 2 2 3 2 9 5 2 6 5 11 17 6 3 20 23 27
17 15 14 12 11 11 11 10 11 11 10 8 8 9 9 8 11 17 8 10 16 23 24 22 19 18 6 5 4 2 1 2 2 3 4 4 11 14 8 14 14 22 21 28 26
19 16 15 13 11 9 9 9 10 10 9 9 7 7 7 7 8 2 4 14 19 22 23 20 17 12 4 4 4 3 1 8 4 1 6 7 12 12 16 8 20 33 31 26 25
18 16 15 13 12 10 8 8 8 8 7 7 7 6 5 4 2 3 1 17 19 22 24 21 19 8 5 4 5 2 3 7 8 11 7 5 12 10 5 5 21 31 33 27 24
17 15 15 14 12 10 8 6 6 6 6 5 5 6 4 5 5 3 2 13 21 22 25 20 19 8 6 5 6 4 3 9 13 15 14 12 9 7 14 20 25 26 27 26 21
16 14 13 13 13 13 12 9 6 4 3 3 4 4 4 4 3 4 6 15 21 26 25 19 13 7 6 4 6 6 6 6 16 18 18 17 8 7 6 21 23 25 24 21 20
15 11 11 11 12 13 15 13 9 5 2 1 3 4 6 6 2 4 8 20 24 23 24 17 16 4 6 6 3 8 5 7 19 21 14 23 8 3 13 22 23 21 21 20 18
13 12 9 9 11 12 14 13 11 7 3 1 2 4 4 4 4 6 10 21 23 18 15 16 10 3 1 1 3 3 1 3 6 16 11 8 10 12 18 18 23 21 21 19 18
12 12 10 8 9 11 14 12 7 6 4 1 1 2 1 2 6 11 11 16 18 14 7 13 8 3 3 5 3 3 2 5 6 4 9 4 6 22 26 18 23 23 21 20 19
13 11 10 9 8 10 13 9 9 4 1 2 3 0 4 3 10 14 13 11 13 14 7 7 3 4 2 7 7 8 4 6 6 5 6 7 7 23 25 20 22 23 22 22 21
13 11 10 11 9 10 8 5 8 3 10 6 6 4 2 5 9 14 12 13 13 12 6 7 6 12 11 5 4 8 5 8 5 4 6 5 11 18 25 24 23 21 23 23 23
14 12 12 12 12 7 5 2 3 5 7 8 9 14 12 4 5 13 19 6 10 13 9 7 14 7 4 5 5 8 10 7 10 3 7 8 4 15 22 23 23 23 24 24 22
16 16 14 14 12 3 4 3 10 11 3 5 4 3 2 12 7 14 21 10 13 12 13 13 4 9 7 6 8 4 3 8 7 9 11 10 2 9 6 13 12 13 21 23 24
17 18 16 13 8 8 1 7 15 5 2 6 2 2 5 6 5 17 20 11 5 12 8 9 4 13 8 11 7 7 7 9 17 7 4 3 2 8 12 10 18 23 14 23 24
18 19 17 10 9 4 3 9 12 1 2 11 2 3 3 2 15 13 21 8 7 8 5 4 11 12 11 7 7 1 13 13 15 7 7 9 4 4 14 16 17 26 26 20 26
20 20 14 7 5 4 2 11 1 2 4 4 5 6 2 2 3 9 12 4 3 5 3 4 3 7 8 7 8 9 15 12 5 2 3 11 8 6 14 27 21 33 35 29 22
21 16 5 3 1 1 6 4 1 3 3 6 4 5 2 5 4 6 10 6 4 6 9 4 5 2 3 6 7 9 14 5 3 3 4 3 9 7 16 10 28 33 32 30 24
17 5 2 1 1 3 4 1 5 1 2 2 2 2 3 5 3 3 7 7 4 2 5 8 9 9 7 9 6 13 11 6 7 6 4 6 7 1 4 14 21 34 34 33 25
7 7 7 5 1 3 0 4 1 1 2 6 1 3 3 2 0 1 3 3 1 4 2 4 5 1 6 6 12 7 9 7 1 1 5 5 3 3 4 9 18 27 30 34 30
7 9 8 5 2 7 4 3 1 2 1 1 3 3 3 4 1 2 2 1 4 0 2 6 3 3 5 7 3 7 9 10 5 8 7 4 3 4 8 9 13 18 27 27 29
6 5 2 2 3 4 3 1 1 3 3 2 3 2 2 2 2 1 1 2 1 3 3 4 3 4 3 9 12 6 5 3 6 3 9 6 4 3 8 12 14 15 20 21 22
4 2 4 2 2 2 1 0 2 3 2 1 1 2 3 2 2 1 3 0 2 2 3 2 2 4 3 2 3 2 10 13 9 10 1 3 2 3 6 13 16 16 16 16 18
4 4 4 7 2 2 0 1 2 1 4 4 2 4 2 3 2 3 3 2 1 3 3 4 1 3 5 4 3 2 1 3 2 3 9 8 3 3 10 13 16 17 15 15 17
3 2 2 2 3 1 2 1 2 4 3 3 2 2 2 3 4 2 3 1 4 4 5 2 2 4 5 1 1 2 2 3 7 9 6 6 7 11 11 10 13 14 14 15 13
3 2 2 1 3 2 2 1 2 3 5 10 3 5 1 2 2 3 3 3 2 8 3 1 3 3 3 2 8 6 5 3 7 2 9 9 12 16 16 14 14 13 16 17 15
2 3 4 3 1 1 2 2 1 1 4 4 3 5 4 3 3 3 4 4 3 5 2 3 2 1 3 1 5 4 10 5 3 1 2 6 8 8 19 19 17 15 14 14 16
4 4 3 1 2 1 0 1 2 1 2 3 2 2 5 3 1 4 3 1 2 2 2 2 2 3 4 5 4 4 7 6 1 1 1 5 4 18 17 20 19 18 14 13 14
Wind_Direction
348 341 334 325 316 308 305 301 298 290 274 271 268 271 266 271 268 255 250 218 196 177 176 166 160 156 163 183 163 170 279 110 143 138 146 197 132 83 108 126 122 160 143 148 151
356 349 341 333 322 314 306 301 297 293 283 265 257 270 270 273 277 265 240 222 193 185 179 173 158 158 167 194 205 219 257 90 132 107 176 135 128 123 112 124 112 117 127 143 150
1 356 350 344 336 324 313 304 295 291 285 280 251 253 264 282 299 247 200 202 189 185 185 174 169 154 144 181 198 168 122 127 134 83 206 125 108 131 120 139 161 143 145 151 156
3 3 3 0 355 347 331 316 302 292 284 277 263 241 243 257 178 136 275 191 187 184 184 177 174 161 134 187 201 263 137 139 147 175 199 175 121 110 69 165 158 148 149 153 158
5 8 9 7 6 4 360 343 318 300 287 267 244 249 227 232 246 166 135 178 178 177 185 179 171 165 169 181 176 227 140 166 184 188 179 148 120 110 79 130 143 147 149 155 159
8 12 12 20 27 26 17 6 351 328 294 258 241 230 223 248 227 215 198 185 182 164 172 177 177 192 138 174 200 164 142 159 154 167 152 142 144 95 124 139 147 153 154 160 164
9 11 16 21 18 18 17 12 8 355 333 245 215 221 242 237 156 177 164 179 177 171 177 174 166 192 152 149 189 164 124 108 156 160 141 123 145 147 146 157 157 162 159 164 168
10 11 9 7 9 10 10 7 14 11 17 90 170 211 234 217 209 158 155 168 175 174 187 187 185 176 209 131 110 166 218 153 104 158 150 145 165 168 165 165 169 169 171 173 178
10 12 7 356 355 359 356 357 356 13 36 57 133 225 247 158 171 154 139 173 171 164 150 183 176 227 185 150 116 157 192 168 127 90 151 148 133 164 185 172 177 178 177 179 186
11 8 3 356 349 349 348 353 352 345 147 353 283 15 98 75 161 153 140 172 153 165 129 153 195 217 177 196 188 171 176 145 146 167 176 165 123 170 185 186 187 184 181 183 190
3 359 350 347 348 346 354 10 3 333 304 251 284 287 336 100 146 174 146 144 150 150 156 157 195 200 195 206 125 154 182 124 103 40 90 4 155 170 181 197 196 185 189 191 195
347 347 343 337 338 347 21 24 12 317 306 309 262 256 241 195 125 163 161 131 159 158 143 161 213 190 212 208 133 126 146 99 89 44 91 48 171 167 184 204 197 188 194 195 195
337 337 342 330 342 36 354 20 340 322 274 307 325 265 189 170 154 167 169 147 165 170 176 189 186 170 185 192 172 151 145 155 133 121 74 100 32 180 150 180 186 190 201 200 197
333 331 333 326 332 347 80 334 342 328 314 23 56 137 154 154 115 163 166 153 166 182 167 190 135 169 173 191 196 173 203 138 135 144 130 191 198 228 184 173 215 215 198 205 205
330 327 323 317 305 325 301 327 337 341 97 338 31 354 190 207 134 179 182 197 174 163 199 143 159 168 176 183 190 54 173 151 161 98 138 194 164 200 194 204 197 211 217 208 208
329 323 320 307 297 284 289 324 346 254 60 7 360 354 152 37 104 138 177 207 125 137 175 119 151 174 198 182 177 121 130 103 115 141 225 195 214 191 192 208 196 205 216 214 214
328 321 311 263 113 162 318 328 282 47 324 3 348 358 65 24 90 153 171 171 179 171 188 193 185 180 178 162 145 184 175 150 181 198 228 157 204 254 201 197 204 201 205 205 209
335 359 97 94 80 315 320 140 67 13 343 341 338 354 72 4 59 46 149 165 88 86 160 208 215 210 171 213 174 190 211 195 197 193 195 131 214 221 181 214 215 210 209 204 208
18 89 91 77 21 323 271 63 98 171 323 337 109 62 59 43 347 118 66 129 125 173 203 177 223 213 209 174 192 174 222 246 121 7 199 171 224 229 233 217 201 203 201 199 210
89 99 77 109 69 348 57 97 117 253 294 255 64 355 48 18 173 109 110 121 125 159 315 176 255 191 156 179 166 219 182 202 223 207 229 195 243 179 175 170 177 188 190 197 202
100 99 42 139 23 29 67 40 281 264 234 14 66 85 50 23 42 1 98 117 126 135 160 158 226 142 192 204 188 174 202 207 222 267 217 203 222 175 168 172 172 166 172 179 179
89 81 97 59 27 47 59 304 343 6 26 1 38 71 54 38 51 1 153 40 61 185 191 175 188 237 248 97 290 239 220 202 218 198 235 298 149 320 175 166 171 164 159 159 180
79 101 130 30 69 66 17 340 350 38 37 357 53 44 74 42 1 31 24 352 246 191 180 188 194 209 176 169 136 176 131 230 178 206 201 219 179 143 151 157 171 169 166 168 178
96 114 78 100 101 143 142 31 110 30 68 328 5 118 112 47 56 31 17 9 322 27 76 174 158 259 258 36 43 137 14 202 235 225 189 222 165 186 182 171 168 165 165 172 182
69 88 107 75 42 117 88 17 78 11 8 24 76 35 30 103 84 23 9 307 77 1 66 327 193 167 130 80 112 80 24 233 215 228 224 191 199 188 182 174 171 159 156 162 160
106 143 113 99 76 88 19 47 89 88 2 20 50 12 39 77 58 52 1 15 35 321 47 359 112 343 164 121 167 78 49 78 102 142 265 180 198 181 167 162 157 162 159 157 161
52 91 118 48 111 124 52 134 82 102 99 48 325 300 105 84 344 323 301 296 4 282 54 32 74 353 184 343 228 198 21 30 344 90 332 189 11 161 161 164 163 160 164 159 157
Height
1512 1510 1509 1508 1506 1505 1504 1503 1502 1501 1500 1501 1502 1502 1502 1502 1502 1502 1502 1505 1506 1507 1510 1514 1517 1519 1521 1523 1523 1524 1525 1527 1529 1527 1530 1530 1530 1533 1536 1538 1542 1544 1547 1553 1556
1511 1508 1506 1505 1504 1502 1502 1501 1500 1499 1499 1498 1499 1500 1500 1500 1500 1498 1501 1501 1503 1506 1509 1513 1516 1519 1522 1523 1524 1524 1523 1524 1524 1526 1529 1530 1531 1533 1538 1541 1544 1546 1550 1555 1559
1510 1507 1505 1503 1501 1500 1499 1498 1497 1496 1497 1497 1497 1497 1498 1498 1498 1496 1495 1498 1501 1505 1510 1513 1517 1519 1521 1523 1522 1522 1524 1525 1526 1526 1531 1532 1532 1535 1539 1543 1542 1543 1550 1557 1560
1510 1507 1504 1502 1500 1498 1497 1496 1495 1494 1494 1495 1496 1495 1496 1497 1497 1495 1494 1495 1499 1504 1509 1513 1515 1518 1521 1521 1520 1521 1522 1524 1527 1530 1533 1533 1534 1538 1538 1541 1544 1547 1550 1556 1562
1509 1507 1504 1502 1499 1497 1496 1494 1493 1492 1492 1493 1494 1495 1495 1496 1494 1494 1495 1496 1499 1504 1508 1511 1514 1517 1517 1520 1520 1520 1521 1523 1525 1530 1532 1536 1537 1540 1542 1542 1548 1553 1555 1559 1564
1509 1507 1504 1502 1500 1498 1496 1494 1493 1492 1491 1492 1493 1494 1496 1496 1492 1492 1493 1496 1500 1504 1508 1511 1514 1515 1517 1517 1518 1519 1520 1522 1522 1529 1532 1535 1541 1540 1548 1548 1552 1555 1558 1562 1565
1508 1506 1505 1503 1501 1499 1498 1495 1493 1492 1492 1491 1492 1493 1494 1493 1491 1492 1492 1495 1500 1505 1508 1511 1513 1515 1515 1516 1517 1518 1520 1520 1524 1529 1533 1537 1546 1546 1548 1550 1554 1558 1560 1564 1568
1508 1506 1504 1503 1501 1500 1498 1496 1494 1492 1492 1491 1491 1492 1490 1491 1491 1492 1493 1496 1502 1506 1510 1512 1514 1514 1514 1515 1516 1517 1517 1522 1526 1527 1534 1532 1545 1545 1547 1551 1555 1559 1561 1565 1569
1508 1506 1504 1502 1501 1500 1497 1495 1494 1492 1493 1492 1492 1492 1490 1490 1492 1493 1496 1499 1503 1508 1510 1513 1514 1515 1514 1513 1518 1516 1521 1521 1528 1528 1530 1535 1537 1545 1547 1549 1554 1557 1561 1565 1569
1508 1506 1504 1502 1500 1498 1497 1495 1494 1493 1492 1493 1493 1494 1491 1491 1492 1495 1498 1500 1503 1507 1512 1514 1516 1513 1512 1510 1516 1518 1522 1518 1527 1530 1528 1532 1536 1546 1547 1549 1553 1556 1560 1564 1567
1507 1505 1503 1501 1500 1499 1497 1495 1496 1496 1492 1490 1491 1490 1489 1491 1493 1496 1498 1501 1504 1508 1508 1513 1513 1513 1507 1508 1506 1507 1512 1520 1527 1531 1533 1538 1536 1543 1544 1551 1552 1556 1559 1563 1565
1505 1504 1502 1500 1498 1497 1497 1496 1495 1497 1491 1487 1486 1487 1488 1490 1493 1495 1500 1502 1506 1505 1508 1513 1511 1512 1511 1510 1508 1508 1512 1523 1531 1532 1532 1537 1540 1542 1545 1548 1549 1553 1558 1561 1565
1503 1502 1501 1498 1497 1497 1496 1495 1494 1492 1492 1487 1485 1486 1487 1489 1490 1494 1499 1500 1503 1506 1505 1505 1505 1510 1512 1512 1511 1514 1514 1522 1522 1533 1535 1538 1546 1546 1546 1548 1552 1555 1557 1560 1562
1502 1500 1499 1498 1498 1496 1495 1494 1492 1490 1491 1488 1485 1487 1488 1488 1490 1493 1496 1500 1502 1504 1506 1504 1505 1506 1511 1512 1511 1517 1513 1516 1526 1529 1536 1537 1560 1548 1544 1549 1550 1551 1554 1556 1560
1500 1498 1496 1496 1496 1495 1496 1493 1492 1492 1503 1489 1487 1487 1487 1489 1489 1494 1495 1498 1498 1500 1504 1505 1504 1507 1510 1510 1512 1514 1512 1517 1520 1528 1534 1545 1550 1539 1542 1543 1546 1546 1548 1551 1555
1498 1495 1493 1494 1493 1494 1493 1492 1492 1496 1505 1491 1489 1488 1487 1488 1488 1493 1497 1498 1498 1499 1501 1502 1504 1504 1504 1507 1511 1515 1515 1523 1527 1531 1544 1528 1536 1539 1532 1522 1534 1540 1540 1546 1551
1494 1491 1490 1491 1493 1493 1493 1492 1495 1502 1498 1498 1495 1492 1491 1490 1489 1491 1493 1496 1498 1506 1506 1504 1504 1504 1505 1507 1512 1513 1515 1532 1542 1542 1536 1531 1535 1510 1519 1522 1525 1530 1536 1543 1546
1490 1489 1490 1491 1492 1493 1492 1493 1504 1502 1501 1498 1496 1493 1493 1494 1495 1494 1494 1498 1500 1499 1504 1509 1515 1502 1502 1503 1506 1512 1509 1515 1539 1535 1527 1530 1531 1511 1515 1519 1521 1526 1531 1540 1543
1487 1489 1491 1491 1492 1492 1492 1497 1503 1501 1501 1498 1496 1495 1497 1496 1495 1495 1499 1499 1499 1497 1505 1509 1509 1497 1499 1499 1502 1510 1514 1504 1513 1519 1516 1521 1520 1513 1515 1515 1517 1520 1527 1533 1540
1488 1490 1491 1493 1493 1493 1492 1502 1501 1501 1500 1499 1500 1501 1499 1499 1497 1495 1498 1499 1498 1499 1499 1501 1508 1496 1496 1499 1501 1498 1497 1514 1511 1527 1525 1521 1520 1511 1515 1513 1512 1516 1520 1528 1536
1490 1492 1494 1494 1494 1495 1498 1502 1501 1500 1499 1497 1498 1500 1501 1500 1501 1500 1502 1500 1499 1500 1501 1501 1502 1499 1497 1494 1494 1501 1502 1504 1499 1508 1508 1518 1511 1505 1506 1511 1514 1518 1521 1528 1532
1489 1492 1495 1495 1496 1503 1501 1503 1502 1500 1499 1498 1498 1497 1500 1501 1500 1500 1497 1499 1501 1500 1499 1500 1498 1500 1494 1493 1495 1493 1489 1492 1499 1513 1511 1508 1507 1508 1508 1512 1516 1520 1522 1526 1532
1492 1495 1496 1496 1498 1501 1503 1503 1503 1501 1501 1499 1498 1499 1500 1501 1503 1501 1501 1501 1501 1500 1499 1500 1502 1502 1497 1496 1495 1494 1495 1495 1494 1492 1501 1502 1505 1510 1512 1515 1518 1520 1523 1526 1530
1493 1495 1498 1498 1499 1500 1501 1502 1502 1502 1503 1502 1500 1499 1500 1502 1504 1505 1502 1501 1501 1499 1499 1501 1500 1499 1500 1497 1498 1498 1498 1496 1491 1491 1494 1493 1505 1511 1511 1514 1517 1520 1523 1526 1531
1493 1497 1498 1498 1501 1502 1502 1504 1503 1505 1504 1503 1501 1502 1502 1503 1504 1506 1505 1502 1500 1502 1500 1501 1499 1500 1499 1500 1498 1501 1498 1497 1493 1490 1490 1489 1495 1496 1507 1513 1518 1521 1523 1527 1529
1493 1495 1497 1500 1502 1503 1506 1506 1505 1506 1506 1504 1504 1504 1504 1504 1505 1507 1507 1505 1505 1503 1500 1502 1503 1504 1500 1499 1496 1499 1496 1494 1495 1496 1493 1490 1494 1495 1507 1513 1518 1523 1525 1527 1529
1496 1495 1496 1501 1502 1502 1505 1505 1505 1505 1508 1508 1507 1505 1505 1507 1506 1507 1508 1508 1507 1505 1502 1503 1505 1506 1501 1503 1497 1500 1501 1499 1500 1497 1497 1496 1497 1500 1507 1511 1516 1521 1526 1529 1531